Theta_e
317 311 310 306 296 292 288 290 295 294 293 297 298 297 295 296 296 292 309 321 325 333 339 347 350 352 353 354 354 352 351 349 348 347 346 345 344 344 346 348 350 348 346 344 343 341 338 336 334
314 312 306 298 290 286 288 290 292 294 296 298 298 297 296 296 301 308 314 322 331 335 340 345 347 352 353 353 353 352 350 349 348 347 347 346 347 346 345 348 349 348 347 346 342 339 336 332 330
312 307 299 293 287 286 287 290 291 297 298 297 295 298 299 297 303 308 314 320 333 335 340 344 347 351 353 353 352 352 351 351 349 348 347 348 348 348 347 347 348 347 344 343 339 336 332 329 326
307 303 298 290 287 289 293 294 293 295 298 299 296 295 298 301 303 311 318 322 330 333 338 341 347 352 353 352 352 351 350 350 349 348 348 349 348 347 347 347 345 343 343 340 337 333 329 324 321
301 296 290 288 288 291 295 294 295 294 294 295 296 295 296 302 311 317 320 323 327 331 336 339 346 350 351 352 352 351 351 350 350 350 350 349 347 344 342 342 343 343 340 336 334 330 326 321 318
298 294 288 286 288 292 294 294 294 293 292 294 299 297 295 302 308 313 318 317 325 331 333 338 339 344 347 349 350 350 350 350 350 351 350 350 348 344 338 336 340 339 336 333 332 328 323 319 315
295 290 287 286 287 290 294 296 298 293 292 293 300 295 298 301 305 308 314 315 318 327 331 335 339 340 339 342 344 346 348 348 348 349 349 347 346 344 338 338 337 337 336 333 332 326 321 317 313
296 292 288 288 288 289 294 295 295 293 293 298 299 293 293 304 304 307 310 314 315 320 330 332 335 342 341 340 336 338 341 343 343 343 341 339 339 337 336 333 337 337 335 332 331 325 320 317 310
296 289 286 288 288 291 295 295 295 295 293 295 297 300 297 302 305 306 307 310 311 316 321 328 331 335 338 341 337 333 336 338 337 337 334 334 333 333 329 328 332 336 335 333 331 324 321 316 309
293 287 289 293 292 292 295 293 294 295 295 293 293 298 299 299 303 302 300 301 302 307 313 320 326 330 333 338 337 338 340 339 340 339 338 335 331 330 328 324 327 331 331 332 330 324 321 307 295
294 290 293 296 296 296 295 293 295 293 294 295 294 297 298 295 295 295 295 295 294 297 300 303 320 326 329 336 337 336 337 337 335 335 335 332 328 326 325 324 325 321 321 320 321 315 307 298 293
294 296 296 298 298 296 294 295 295 295 297 298 295 295 293 294 294 294 294 294 294 295 296 298 299 320 326 328 333 334 335 336 334 333 329 328 326 325 323 322 322 321 318 314 310 307 304 299 296
294 295 297 299 298 296 296 295 294 296 297 296 296 295 293 293 293 293 294 294 294 294 295 296 298 305 322 325 325 326 332 335 333 332 329 325 323 324 322 321 319 319 316 313 307 305 303 297 294
294 295 295 296 296 295 294 292 293 296 295 294 294 292 292 292 292 292 292 292 292 294 294 296 299 302 313 323 322 323 331 332 330 328 327 323 323 321 322 319 317 316 315 311 307 304 301 295 292
294 291 292 293 293 293 294 290 292 296 294 292 291 290 291 292 292 291 292 291 291 292 294 296 300 305 311 319 320 321 322 324 324 323 323 323 326 325 321 318 316 315 313 310 307 301 297 293 292
290 288 285 292 293 293 292 289 294 295 293 290 289 288 289 291 291 291 292 291 291 292 292 295 299 303 311 315 318 319 319 320 320 324 324 324 324 323 319 317 315 315 312 309 306 302 296 294 291
286 282 284 289 293 292 290 288 294 294 293 289 288 289 289 289 290 291 291 291 291 291 292 293 296 298 305 311 313 314 314 319 319 321 321 322 321 320 318 316 316 313 310 308 305 299 298 293 291
283 283 285 286 290 290 288 289 292 294 292 289 288 287 288 288 289 290 290 290 290 290 291 292 294 294 299 305 305 305 306 311 310 309 311 315 317 315 315 314 312 310 308 305 302 299 294 293 291
286 285 285 287 291 288 289 288 291 292 289 287 287 287 287 288 289 289 289 289 290 290 291 291 291 292 293 297 299 300 297 301 299 299 299 305 308 312 311 309 308 306 306 304 301 296 295 293 291
286 284 285 288 291 289 288 288 291 290 289 288 288 287 287 287 287 287 287 287 287 288 289 290 290 291 291 292 293 295 294 294 293 293 293 294 295 298 303 304 303 303 302 300 298 296 294 293 291
286 285 285 287 289 287 286 284 288 288 289 289 289 288 287 286 285 285 285 284 285 285 286 288 289 290 290 291 291 291 291 290 290 290 290 291 291 291 293 294 297 297 298 298 297 295 294 293 291
285 290 289 288 285 282 285 279 284 287 286 286 286 285 285 285 286 286 285 284 284 284 285 286 287 287 289 290 289 288 287 286 287 287 288 288 288 288 290 290 291 291 294 295 295 295 294 292 291
288 289 287 285 283 280 281 279 283 286 283 284 284 285 284 285 285 285 285 285 284 284 283 283 285 285 285 286 286 285 284 285 284 284 284 285 285 286 286 287 288 288 289 289 290 292 293 292 291
290 287 286 284 282 277 282 282 280 283 285 284 285 285 285 285 284 284 285 284 283 282 282 282 283 283 283 283 283 283 282 282 282 282 282 283 283 284 284 285 285 285 285 286 287 288 288 289 291
286 285 279 277 275 277 282 279 283 285 285 286 285 284 284 284 283 283 283 282 282 281 282 283 282 282 282 282 282 281 281 281 280 280 281 281 281 281 282 283 282 283 283 283 284 284 285 286 285
285 285 280 274 274 277 281 279 285 283 284 287 287 286 285 284 284 284 283 282 282 282 281 282 282 281 282 282 281 281 281 280 280 280 280 280 280 280 281 281 281 281 281 282 282 281 281 282 282
285 283 287 282 271 274 281 282 283 284 283 284 284 284 283 284 284 284 284 283 282 282 281 282 282 282 282 282 281 281 281 280 279 279 279 279 279 281 280 279 279 280 280 280 279 279 279 280 280
287 289 282 280 273 270 278 279 281 281 282 283 283 283 283 284 284 284 284 284 283 282 282 281 281 281 281 281 281 281 280 280 279 278 278 278 278 279 279 278 278 279 279 279 278 279 279 278 278
285 284 285 284 280 274 271 278 283 284 284 283 284 284 283 283 284 284 283 283 283 282 282 281 281 280 280 280 279 279 279 279 279 278 278 278 278 278 278 278 278 277 277 277 277 277 278 277 278
286 285 286 282 278 278 278 280 286 286 285 285 284 284 284 284 283 283 284 282 282 282 281 280 280 279 279 279 278 279 278 278 278 277 278 278 277 278 278 278 278 277 277 277 276 276 276 276 276
Wind_Speed
5 5 2 6 6 7 2 0 1 2 2 1 1 2 2 3 3 5 4 7 3 8 12 12 13 14 13 13 12 11 11 11 10 8 7 6 6 5 5 3 7 10 9 7 6 6 6 7 7
4 1 5 3 7 4 5 4 1 1 2 2 2 2 2 2 2 2 1 7 6 8 10 11 13 14 12 11 12 11 11 10 10 9 8 7 6 5 6 5 6 8 9 11 6 5 6 6 7
0 4 5 6 4 4 4 3 2 4 3 2 2 1 1 2 2 2 4 6 6 6 9 11 14 15 14 13 13 12 10 10 10 9 8 8 8 6 6 5 6 8 7 9 4 5 5 6 6
3 6 5 6 2 2 2 2 3 2 3 4 2 2 3 2 2 3 3 6 6 5 5 8 15 15 14 13 13 13 14 12 11 9 9 9 9 8 8 7 7 6 10 6 4 4 5 5 5
5 4 5 4 2 4 2 2 3 3 1 2 2 4 5 4 1 0 4 4 6 6 5 6 13 14 15 14 14 14 13 13 12 11 11 11 10 9 7 5 4 5 7 4 2 2 3 4 4
5 4 5 1 3 4 3 1 1 2 1 3 2 3 5 4 3 2 1 3 4 6 5 5 10 11 13 14 14 13 13 12 11 10 11 11 12 12 9 5 5 1 1 2 3 1 2 3 4
6 5 3 1 3 4 3 4 2 2 1 2 1 3 4 5 6 4 3 1 3 5 6 5 6 8 9 10 10 11 12 11 10 9 11 10 10 11 10 8 6 7 5 3 5 1 1 2 3
6 5 2 1 1 1 4 5 1 1 2 5 2 2 4 4 2 2 1 3 4 5 6 7 6 9 7 6 9 9 9 10 9 8 7 7 7 10 10 8 7 7 5 5 6 3 2 1 2
3 6 1 2 2 2 4 5 2 3 1 4 3 1 4 5 3 1 4 5 5 4 5 4 5 6 8 9 8 9 10 10 9 9 8 7 3 6 8 6 8 6 4 5 5 4 3 2 2
6 4 7 4 3 2 3 1 3 5 7 2 3 7 6 6 6 6 7 8 7 6 5 4 5 4 5 5 5 7 6 5 6 5 5 4 5 5 6 6 7 7 6 5 5 4 3 4 2
2 5 5 4 4 2 2 2 3 1 7 4 4 9 8 8 10 9 7 5 6 7 6 8 6 5 5 7 6 4 3 4 1 3 4 3 3 3 3 1 1 1 3 1 3 3 3 2 2
0 4 3 2 3 1 3 2 5 5 9 6 4 3 5 9 8 7 7 7 8 8 7 8 8 7 7 4 4 6 5 3 3 3 2 3 3 4 3 3 3 3 1 2 2 2 2 1 4
2 3 3 6 6 5 2 6 5 9 6 5 8 9 9 8 8 6 7 6 8 8 9 9 8 7 5 6 4 4 6 5 3 2 3 4 3 5 4 3 4 3 3 3 3 2 1 1 3
2 3 6 7 7 4 4 2 2 4 8 8 9 9 8 9 10 8 11 10 11 9 10 10 8 7 5 5 5 3 5 6 3 3 5 6 4 4 5 4 3 3 4 4 4 4 3 2 2
1 5 7 7 2 5 6 0 7 5 8 7 8 7 8 8 8 8 8 7 9 10 11 11 11 10 0 5 4 4 2 3 3 3 4 6 5 4 4 4 4 4 3 4 3 3 3 3 2
3 4 4 3 3 1 4 9 7 2 8 7 6 6 7 9 8 8 9 9 10 10 12 12 11 12 9 5 4 4 4 3 3 3 2 2 2 1 3 3 3 4 5 5 3 3 2 3 3
4 4 4 9 3 2 3 6 8 6 7 6 6 6 6 7 9 10 11 10 10 9 11 13 13 12 11 10 8 8 8 7 6 6 5 6 4 2 0 1 1 2 3 3 3 2 2 2 2
6 4 4 6 2 2 3 8 8 6 3 7 7 6 6 7 9 10 12 12 11 10 11 12 11 14 9 6 8 8 9 9 9 8 8 9 6 6 4 3 3 3 3 2 1 2 1 1 2
4 4 5 4 5 1 7 7 12 4 4 7 7 7 7 7 5 8 10 10 11 14 15 14 15 14 11 6 4 5 5 7 10 10 14 13 11 9 7 4 4 4 3 2 3 2 1 1 1
2 1 8 5 4 6 7 8 11 4 2 3 9 6 7 6 7 9 10 10 11 10 11 14 14 15 11 7 4 4 4 6 6 8 13 14 14 14 11 9 6 5 3 4 2 1 1 1 2
4 7 4 6 4 3 4 6 7 3 5 9 7 7 6 7 6 6 8 8 8 11 11 12 13 14 13 12 6 5 5 4 7 10 10 12 13 13 12 11 9 8 6 4 3 2 1 3 0
5 8 8 6 4 5 3 7 5 5 4 4 6 6 6 6 6 5 6 7 7 7 7 10 12 12 12 11 11 15 10 8 5 5 7 9 13 14 13 11 10 9 7 9 6 4 1 1 4
7 2 5 2 2 2 4 2 8 5 3 5 5 6 6 5 5 6 6 6 5 6 6 6 11 13 12 12 11 9 11 6 5 6 9 10 10 12 13 13 12 11 7 7 8 7 6 2 2
4 4 6 5 3 1 10 8 4 5 2 5 5 6 7 7 7 6 5 5 5 5 6 7 10 10 9 10 11 11 11 9 8 9 8 7 6 7 11 10 10 10 10 10 8 6 7 5 4
4 6 2 4 3 7 1 2 8 1 3 6 15 10 7 5 5 6 6 5 4 5 6 6 7 8 6 9 10 9 10 10 10 6 5 6 5 5 9 8 8 7 7 8 8 8 7 6 5
7 9 8 8 4 5 1 7 6 1 2 6 13 12 8 7 7 6 6 6 5 5 6 6 6 8 7 7 7 7 8 6 5 6 4 3 4 4 5 7 6 8 7 7 7 4 4 6 5
5 4 4 5 3 3 5 4 1 2 5 6 7 7 10 8 7 8 7 6 6 6 6 6 6 6 7 7 6 7 7 7 6 6 4 3 5 5 6 6 7 7 8 8 7 4 6 5 5
3 6 4 3 2 4 5 6 6 7 8 7 8 11 7 7 9 8 7 7 5 5 5 6 6 7 6 6 5 5 6 5 5 4 4 5 4 4 5 5 5 6 5 6 7 7 7 6 5
3 2 3 3 5 6 3 8 4 7 10 14 13 9 10 10 10 8 6 6 6 6 5 5 6 6 5 5 5 5 4 4 4 4 4 4 3 5 6 6 6 6 6 5 5 5 6 8 9
2 7 7 7 7 4 3 13 3 3 8 10 9 10 9 8 8 7 7 8 7 7 6 7 6 6 6 5 5 5 4 4 5 5 5 6 6 5 6 6 7 7 7 6 6 8 8 9 11
Wind_Direction
331 335 77 41 54 63 329 25 274 338 336 228 104 113 176 189 157 207 292 194 168 153 167 178 182 182 179 173 169 163 160 160 155 147 137 130 123 119 116 106 123 111 105 94 85 77 70 62 50
329 35 43 78 81 64 282 264 239 260 316 26 68 72 42 269 281 292 356 191 173 156 167 177 179 181 181 171 165 166 167 168 166 161 155 152 148 146 147 132 133 134 128 102 87 83 70 52 40
308 42 77 86 101 155 191 236 268 322 351 2 10 85 167 295 306 243 269 156 141 157 166 177 179 180 180 172 170 172 175 175 174 175 172 170 157 135 139 151 138 121 105 74 80 77 66 46 30
43 12 38 79 124 243 227 221 227 335 348 37 11 11 319 335 312 269 94 130 147 167 168 176 182 183 182 179 179 178 179 182 182 184 189 179 148 130 123 129 126 119 103 105 93 79 58 48 35
34 56 55 83 284 271 254 237 183 88 55 323 13 319 296 336 300 30 128 148 170 177 173 172 185 187 187 186 186 186 188 189 189 192 186 167 160 151 139 136 161 192 109 93 86 92 80 60 48
39 85 56 130 278 282 286 271 107 60 330 319 26 348 272 335 342 312 233 185 193 174 181 182 194 192 191 191 190 192 193 193 198 201 189 186 179 173 159 180 212 127 121 239 270 54 55 54 51
102 78 169 178 299 329 327 348 46 118 331 262 201 334 285 306 230 216 221 245 178 196 181 190 190 200 196 193 192 193 193 193 203 206 201 203 191 179 159 164 190 222 217 209 238 183 96 79 68
100 88 101 248 266 306 333 349 15 84 287 329 163 259 280 278 313 129 193 254 230 212 206 196 190 193 195 199 194 195 195 192 199 209 196 211 195 168 164 168 190 211 215 219 226 198 206 141 55
115 62 180 222 138 286 342 17 301 275 270 341 299 243 272 336 33 10 353 352 341 327 287 250 209 202 194 194 196 196 202 195 203 210 200 211 175 175 171 170 188 206 201 200 194 205 214 101 1
84 108 213 217 188 233 297 252 328 357 336 318 320 314 345 342 21 10 350 322 320 309 299 272 288 253 207 203 191 202 205 211 205 212 202 182 176 166 165 175 186 190 175 188 197 219 116 62 0
158 186 195 239 201 199 229 265 196 241 315 224 306 291 346 28 38 46 32 12 330 322 357 337 276 226 230 224 212 201 199 219 201 198 185 180 141 132 129 113 159 107 155 128 129 87 72 1 345
27 243 231 251 169 314 284 339 296 198 238 63 359 352 54 46 35 22 14 360 346 343 331 330 330 252 204 187 200 211 216 208 182 168 182 154 132 143 142 164 167 151 117 148 127 122 121 341 330
196 293 278 274 279 244 322 261 239 263 265 96 73 51 46 36 26 15 3 353 337 342 331 329 325 315 227 190 170 167 209 210 201 184 187 162 155 157 158 180 163 175 151 168 174 167 175 265 317
200 277 285 285 272 259 215 254 133 314 98 77 65 53 45 37 13 4 7 354 351 335 334 325 324 313 252 190 159 164 193 205 194 195 209 177 168 169 172 165 185 193 182 168 171 175 186 244 329
340 334 328 258 275 224 152 282 230 209 86 76 68 55 42 32 28 19 352 350 347 336 327 344 340 335 212 164 146 139 136 143 171 193 196 195 174 178 174 177 165 192 184 155 151 143 150 181 203
13 47 350 285 162 236 144 262 258 355 117 105 94 66 54 32 14 6 1 359 355 351 353 342 352 359 16 69 102 106 104 78 7 14 17 250 231 173 152 170 198 187 167 166 165 146 197 231 220
3 239 220 313 207 127 153 258 274 92 105 127 119 86 63 36 21 8 359 355 357 355 358 0 1 10 17 41 58 61 61 61 45 41 33 21 13 18 217 231 292 132 143 155 146 141 180 212 241
204 212 237 245 270 154 201 258 285 293 137 151 125 103 69 47 22 9 7 360 360 8 16 12 13 11 0 46 58 52 52 52 48 40 36 34 37 40 47 32 54 90 90 68 67 86 64 17 241
160 187 212 250 257 232 243 244 267 252 99 143 144 111 84 61 17 28 21 15 17 16 23 24 22 11 17 3 18 37 42 37 38 31 24 25 27 28 42 42 37 33 31 33 129 96 236 313 68
215 282 261 287 272 172 271 269 266 6 62 210 135 122 110 95 47 28 23 21 23 28 27 29 30 22 24 31 4 40 58 49 45 34 35 28 26 22 31 31 32 36 31 21 42 76 61 270 188
205 210 223 224 324 292 333 289 249 75 78 82 89 114 104 108 91 50 34 23 17 28 24 38 38 40 30 29 35 26 35 41 31 26 29 24 26 23 25 32 37 31 22 22 6 342 257 308 276
214 201 212 227 137 229 139 276 289 169 114 89 116 122 128 118 94 77 58 46 34 23 28 41 50 52 48 37 56 64 64 58 21 26 33 32 28 26 25 24 28 33 29 26 6 2 346 0 291
235 126 174 203 177 65 288 325 257 115 210 173 165 148 139 132 118 101 88 76 50 36 34 46 57 53 50 53 56 71 71 62 49 37 41 39 33 31 23 23 24 27 25 18 16 9 359 343 297
131 86 45 51 61 298 222 188 260 186 168 138 162 160 164 161 140 116 102 91 81 57 53 55 71 61 58 66 66 70 76 69 61 42 36 22 21 29 28 24 22 25 24 18 5 359 14 6 343
114 95 331 336 348 236 12 137 246 18 25 189 173 169 177 166 144 143 137 124 103 95 88 76 73 75 69 76 75 74 73 71 68 57 37 27 24 12 15 16 19 19 21 17 12 12 7 3 357
181 160 163 215 209 255 272 243 257 305 333 129 151 155 156 175 179 169 165 157 145 122 107 106 100 94 83 80 78 81 79 75 66 57 48 4 40 15 1 9 7 7 13 16 11 0 358 354 349
199 189 172 107 60 25 232 296 295 43 58 95 121 146 182 188 176 182 190 174 162 153 137 126 115 94 78 78 75 63 65 65 63 48 42 13 19 7 0 4 2 359 6 3 359 351 343 348 334
177 164 74 4 234 244 263 274 233 220 197 166 173 200 192 186 196 199 188 184 172 150 144 122 105 105 109 98 88 82 81 80 78 68 41 28 357 354 356 356 352 343 351 348 347 339 333 329 321
130 213 100 152 160 193 238 261 230 210 171 186 201 201 197 201 206 198 185 181 175 166 155 135 127 129 127 121 117 114 96 80 78 60 31 12 350 360 358 343 340 335 337 334 327 318 308 315 311
274 208 168 201 238 252 150 258 14 79 176 179 198 204 210 214 211 197 183 177 176 173 170 172 169 165 170 160 141 132 107 64 46 29 10 2 354 349 342 338 336 332 329 325 320 317 313 304 306